Temperature
20 20 19 19 19 19 19 19 19 19 19 19 19 19 19 19 19 19 19 19 19 19 19 19 19 18 18 18 18 18 18 18 18 18 18 18 18 18 18 18 18 18 18
20 20 19 19 19 19 19 19 19 19 19 19 19 19 19 19 19 19 19 19 19 19 19 19 19 18 18 18 18 18 18 18 18 18 18 18 18 18 18 18 18 18 18
20 20 19 19 19 19 19 19 19 19 19 19 19 19 19 19 19 19 19 19 19 19 19 19 19 18 18 18 18 18 18 18 18 18 18 18 18 18 18 18 18 18 18
20 20 19 19 19 19 19 19 19 19 19 19 19 19 19 19 19 19 19 19 19 19 19 19 19 18 18 18 18 18 18 18 18 18 18 18 18 18 18 18 18 18 18
20 20 19 19 19 19 19 19 19 19 19 19 19 19 19 19 19 19 19 19 19 19 19 19 18 18 18 18 18 18 18 18 18 18 18 18 18 18 18 18 18 18 18
20 19 19 19 19 19 19 19 19 19 19 19 19 19 19 19 19 19 19 19 19 19 19 19 18 18 18 18 18 18 18 18 18 18 18 18 18 18 18 18 18 18 18
20 19 19 19 19 19 19 19 19 19 19 19 19 19 19 19 19 19 19 19 19 19 19 19 18 18 18 18 18 18 18 18 18 18 18 18 18 18 18 18 18 18 18
20 19 19 19 19 19 19 19 19 19 19 19 19 19 19 19 19 19 19 19 19 19 18 18 18 18 18 18 18 18 18 18 18 18 18 18 18 18 18 18 18 18 18
20 19 19 19 19 19 19 19 19 19 19 19 19 19 19 19 19 19 19 19 19 18 18 18 18 18 18 18 18 18 18 18 18 18 18 18 18 18 18 18 18 18 18
20 20 19 19 19 19 19 19 19 19 19 19 19 19 19 19 19 19 19 19 19 18 18 18 18 18 18 18 18 18 18 18 18 18 18 18 18 18 18 18 18 18 18
20 20 20 19 19 19 19 19 19 19 19 19 19 19 19 19 19 19 18 18 19 18 18 18 18 18 18 18 18 18 18 18 18 18 18 18 18 18 18 18 18 18 18
20 20 20 19 19 19 19 19 19 19 19 19 19 19 19 19 19 19 19 18 18 18 18 18 18 18 18 18 18 18 19 18 18 18 18 18 18 18 18 18 18 18 18
20 20 20 20 19 19 19 19 19 19 19 19 19 19 19 19 19 18 18 18 18 18 18 18 18 18 18 18 18 18 18 18 18 18 18 18 18 18 18 18 18 18 18
20 20 20 20 20 19 19 19 19 19 19 19 19 19 19 19 19 19 19 19 19 19 18 18 18 18 18 18 18 18 18 18 18 18 18 18 18 18 18 18 18 18 18
20 20 20 20 20 19 19 19 19 19 19 19 19 19 19 19 19 19 19 19 19 19 19 19 18 18 18 18 18 18 18 18 18 18 18 18 18 18 18 18 18 18 18
21 20 20 20 20 20 19 19 19 19 19 19 19 19 19 19 19 19 19 19 19 19 19 19 18 18 18 18 18 18 18 18 18 18 18 18 18 18 18 18 18 18 18
21 20 20 20 20 20 19 19 19 19 19 19 19 18 18 19 19 19 19 19 19 19 19 19 18 18 18 18 18 18 18 18 18 18 18 18 18 18 18 18 18 18 18
21 21 20 20 20 20 19 19 19 19 19 19 19 18 18 19 18 19 19 19 19 18 18 18 18 18 18 18 18 18 18 18 18 18 18 18 18 18 18 18 18 18 17
21 21 21 20 20 20 20 19 19 19 19 19 18 18 18 18 18 18 19 18 18 18 18 18 18 18 18 18 18 18 18 18 18 18 18 18 18 18 18 18 18 18 17
21 21 21 21 20 20 20 19 19 19 19 19 19 18 18 18 18 18 18 18 18 18 18 18 18 18 18 18 18 18 18 18 18 18 18 18 18 18 18 17 17 17 17
21 21 21 21 20 20 20 20 19 19 19 19 19 18 18 18 18 18 18 18 18 18 18 18 18 18 18 18 18 18 18 18 18 18 18 17 17 17 17 17 17 17 17
21 21 21 21 20 20 20 20 19 19 19 19 19 19 18 18 18 18 18 18 18 18 18 18 18 18 18 17 17 17 17 17 18 17 17 17 17 17 17 17 17 17 17
21 21 21 21 20 20 20 19 19 19 19 19 19 19 19 18 18 18 18 18 18 18 18 18 18 18 18 17 17 17 17 17 17 17 17 17 17 17 17 17 17 17 17
21 21 21 21 20 20 20 19 19 19 19 19 19 18 18 18 18 18 18 18 18 18 18 18 18 18 17 17 17 17 17 17 16 16 16 16 16 16 16 16 17 16 16
21 21 21 21 20 20 20 19 19 19 19 19 18 18 18 18 18 18 18 18 18 18 18 18 17 17 17 17 17 17 17 16 16 16 16 16 16 16 16 16 16 16 16
21 21 21 21 20 20 20 19 19 19 19 19 18 18 18 18 18 18 18 18 17 17 17 17 17 17 17 17 17 16 16 16 16 16 16 16 16 16 16 16 16 16 16
Wind_Speed
2 4 8 8 9 10 11 12 12 12 12 12 12 12 13 13 12 12 12 12 11 11 10 10 9 9 9 9 9 9 9 9 9 9 9 8 7 7 7 7 7 6 8
5 6 9 9 8 9 12 13 12 12 12 12 12 12 12 12 11 11 11 10 10 10 10 9 8 9 9 8 9 9 8 8 8 8 8 7 7 7 7 7 7 7 8
5 6 9 9 9 11 13 12 11 11 11 11 11 11 11 11 10 10 10 9 9 9 8 8 7 8 8 8 8 8 7 7 7 8 7 6 6 6 6 7 7 7 8
6 6 8 9 9 11 11 11 11 11 11 10 10 10 10 10 10 9 9 8 8 7 7 7 7 7 6 7 6 6 6 6 6 6 5 5 5 6 6 6 6 7 7
5 5 7 10 10 10 10 10 10 10 10 10 9 9 9 9 9 8 8 7 7 7 6 6 6 6 5 5 5 5 5 6 6 5 4 5 5 6 6 7 6 7 7
4 5 6 10 10 9 9 9 10 9 9 9 9 8 8 8 7 7 7 6 6 6 6 6 6 6 6 5 5 4 5 5 5 4 4 5 5 6 7 7 7 7 7
4 3 5 9 10 10 9 9 10 9 9 8 8 7 7 7 7 6 6 6 5 6 6 6 5 5 5 5 4 4 5 5 5 4 4 5 6 8 8 8 7 7 7
5 3 4 8 9 9 9 10 9 9 8 8 7 7 6 6 6 5 5 5 5 5 5 5 5 5 5 5 5 6 6 6 5 5 5 6 8 9 8 8 8 8 8
4 3 2 4 6 8 9 9 9 8 7 7 6 6 5 5 4 4 3 3 4 4 5 5 5 6 6 6 5 6 6 7 5 5 6 6 8 10 9 9 9 8 8
3 2 2 2 3 4 5 7 8 8 7 6 5 5 4 3 3 2 3 3 3 3 4 4 5 6 6 6 6 6 6 6 5 5 5 7 9 10 10 9 8 8 8
3 2 2 2 2 2 3 5 6 6 5 5 4 4 2 1 1 2 2 3 4 4 4 5 5 5 4 4 5 5 5 4 5 5 5 7 8 9 9 8 8 8 8
5 3 2 2 2 2 2 3 3 3 3 2 1 1 1 0 1 2 3 3 4 4 4 4 4 4 3 2 3 4 2 3 3 4 6 8 9 9 9 7 8 9 9
5 4 3 3 2 2 1 2 1 1 1 0 0 0 0 1 1 2 2 3 3 3 2 2 2 2 1 1 2 2 2 2 3 4 6 8 8 9 9 9 8 9 9
4 5 3 4 3 3 2 1 1 1 1 1 1 1 0 0 1 1 1 2 2 2 1 2 1 1 1 2 2 2 3 3 4 5 6 8 8 9 9 9 9 9 9
5 5 4 4 4 3 2 2 2 2 1 2 1 2 1 1 1 1 1 1 2 1 1 1 1 1 1 1 2 2 3 3 4 5 5 7 8 9 9 9 9 9 9
6 6 5 5 4 4 3 2 1 2 2 2 2 2 2 2 1 1 1 1 1 1 1 1 1 1 1 1 2 2 3 2 3 3 3 4 6 7 8 8 8 9 10
7 6 6 6 5 4 4 3 2 2 2 2 2 2 2 3 2 1 1 1 2 1 0 0 1 0 1 1 1 2 1 1 1 1 2 2 4 5 7 8 8 9 9
6 6 6 6 6 5 4 3 2 2 2 2 2 2 2 3 2 2 1 1 1 0 0 0 0 1 1 1 1 1 1 1 1 1 1 1 2 3 5 6 8 9 9
7 7 6 5 6 5 4 3 2 2 2 1 1 1 1 2 2 2 1 1 1 0 0 1 0 0 1 1 1 1 1 1 1 1 1 1 2 2 3 4 6 7 7
6 6 6 5 5 4 3 2 2 1 1 1 1 1 1 1 2 2 1 1 0 0 0 0 0 0 0 1 1 1 1 1 1 1 1 1 1 2 3 3 3 4 6
5 5 5 6 5 5 3 3 2 2 1 1 1 1 1 1 1 2 1 0 0 1 1 1 1 0 1 0 1 2 2 1 1 1 1 1 1 2 2 2 3 3 4
7 6 5 5 5 5 3 2 2 2 1 1 1 1 0 1 1 1 1 1 1 1 1 0 1 1 0 1 1 1 2 3 2 2 1 1 2 2 2 3 3 3 3
7 7 7 6 5 5 4 3 2 2 1 1 1 1 1 0 1 1 2 1 1 1 1 2 1 2 1 1 1 2 1 2 2 2 1 1 2 2 2 2 3 3 4
7 6 6 5 5 4 5 4 4 3 2 2 1 1 1 1 0 1 1 1 1 1 2 2 2 2 2 2 1 1 2 2 1 2 2 2 2 3 3 3 3 4 4
6 6 6 6 5 4 4 5 5 3 2 1 0 0 1 1 1 0 0 0 0 1 1 2 2 2 2 2 2 2 2 1 2 2 3 3 3 3 3 4 3 3 4
6 6 6 6 5 5 5 5 5 4 3 2 1 0 1 1 1 1 0 0 0 1 1 2 2 2 2 2 2 2 2 2 3 3 4 4 4 3 3 3 3 4 4
Wind_Direction
178 178 163 152 148 152 151 139 135 134 133 132 132 133 137 138 140 141 143 144 146 145 146 145 145 148 145 145 147 151 151 149 147 147 147 147 145 145 149 157 160 156 154
156 161 154 147 143 139 144 139 136 134 133 133 131 131 136 139 139 141 144 146 146 144 144 144 150 151 151 151 155 160 161 159 157 155 155 153 151 153 158 160 164 163 160
136 146 148 145 138 131 134 136 135 133 134 135 133 132 135 138 141 142 143 144 145 145 148 152 158 156 160 164 167 168 171 172 168 165 161 155 158 166 170 166 170 168 167
133 135 143 146 142 140 140 140 137 136 138 138 136 136 136 138 141 145 144 145 146 148 153 163 167 166 169 173 173 176 180 183 181 176 162 164 170 176 177 179 179 180 175
123 135 151 145 143 142 142 143 144 144 144 141 138 138 139 140 144 148 147 150 154 158 165 171 176 175 177 178 186 190 193 194 190 182 170 172 177 183 188 191 187 185 184
117 133 156 147 145 145 147 146 149 150 148 144 142 144 145 145 147 150 152 158 166 174 178 181 183 183 184 187 194 201 203 205 201 183 175 179 186 197 197 196 191 185 184
129 141 160 151 151 153 155 152 150 152 151 146 147 150 151 150 155 158 163 174 182 189 191 191 194 192 192 195 201 208 205 210 197 187 188 192 200 204 206 201 194 188 185
135 143 161 158 157 157 157 156 157 155 152 150 155 162 162 158 158 163 176 187 196 202 200 201 206 206 206 209 211 213 212 214 213 202 200 204 210 210 210 206 203 200 195
119 118 123 147 155 158 158 157 159 155 153 156 163 167 167 167 170 178 185 198 210 215 213 217 220 219 216 217 221 223 221 220 215 207 210 208 210 212 214 215 215 211 208
109 106 105 115 128 145 159 160 159 155 157 161 169 176 173 175 183 201 209 225 235 234 234 237 236 231 230 228 227 229 229 226 220 215 217 215 216 219 223 225 223 220 214
152 143 132 135 127 137 157 164 157 157 159 163 175 177 172 184 234 247 250 257 265 265 252 251 249 247 246 247 239 235 238 225 218 223 224 223 222 222 226 226 222 220 219
186 182 170 166 156 150 164 147 149 158 160 162 153 125 77 28 280 275 282 282 281 273 267 261 261 265 268 282 278 257 243 230 229 232 232 229 227 225 225 225 220 220 222
188 188 181 180 172 166 163 143 147 159 153 161 173 89 47 330 298 316 319 314 311 304 304 302 308 297 283 266 273 262 243 241 241 241 237 233 232 231 228 225 223 222 225
181 200 189 176 172 180 174 167 163 167 184 223 247 248 217 319 335 326 329 316 322 315 322 323 319 310 305 296 283 269 256 248 248 244 243 240 236 236 234 227 223 224 227
190 200 197 183 181 178 172 197 180 187 202 226 243 250 215 201 268 298 309 319 316 314 306 309 312 314 307 295 271 261 264 263 255 246 250 246 239 238 238 231 226 227 229
196 199 193 191 185 173 186 195 194 192 202 209 234 241 220 208 219 239 286 317 315 298 263 269 286 285 294 288 287 272 263 271 259 246 249 252 246 242 240 234 232 234 234
193 193 191 192 179 181 195 195 186 191 183 195 228 238 226 210 205 198 214 295 303 305 314 355 331 352 323 319 306 298 273 266 260 261 256 251 249 250 245 239 239 240 239
180 179 189 190 174 175 181 177 167 177 178 201 218 226 226 213 195 174 186 275 302 342 105 180 8 2 342 327 304 311 313 301 273 230 255 253 245 250 251 248 250 247 244
174 173 176 174 166 172 171 159 154 157 167 192 191 198 228 217 190 169 200 265 311 89 224 245 96 149 310 315 304 332 336 317 289 253 235 234 232 242 246 253 254 255 250
165 170 171 164 160 157 147 136 126 132 148 137 196 212 207 200 186 175 187 245 115 85 344 320 81 66 273 304 336 353 334 311 308 279 247 236 229 239 241 242 248 258 252
159 166 174 168 166 158 156 162 168 199 202 202 228 230 220 197 180 161 212 200 121 184 240 231 170 79 17 38 59 352 340 328 319 274 266 251 258 260 250 241 246 249 253
171 172 175 177 174 176 177 163 162 162 185 204 268 338 275 204 195 180 174 203 210 218 275 237 155 159 275 101 123 42 344 344 348 327 286 251 267 269 260 252 247 242 254
180 181 184 186 183 175 163 130 109 86 60 36 346 311 312 256 198 180 175 190 202 202 233 243 201 189 219 232 153 157 175 258 311 312 282 269 270 269 270 265 253 254 257
193 183 184 178 179 175 161 158 156 162 181 213 220 255 307 338 235 180 176 189 215 217 234 250 226 210 195 232 223 207 209 193 214 304 314 293 280 270 270 266 259 255 254
185 173 174 170 169 163 167 175 171 175 188 183 129 46 329 334 344 339 120 102 256 245 246 256 247 221 210 216 218 214 223 226 216 228 278 297 294 271 262 257 256 259 258
172 163 165 167 171 166 169 179 179 179 172 153 151 187 313 331 332 334 91 133 251 257 257 252 242 229 227 222 225 219 212 212 218 217 243 268 280 281 266 256 252 255 256
Height
1495 1495 1496 1496 1495 1494 1495 1498 1501 1503 1505 1507 1508 1510 1511 1512 1514 1515 1516 1518 1519 1521 1522 1523 1525 1526 1527 1529 1530 1531 1532 1534 1535 1536 1537 1538 1539 1540 1541 1542 1543 1543 1544
1495 1496 1496 1496 1494 1488 1489 1497 1502 1505 1506 1508 1510 1511 1512 1514 1515 1516 1517 1519 1520 1521 1523 1524 1525 1527 1528 1529 1530 1532 1533 1534 1535 1536 1537 1538 1539 1540 1541 1542 1543 1543 1544
1496 1497 1497 1498 1497 1494 1495 1500 1504 1506 1507 1509 1511 1512 1513 1515 1516 1517 1518 1520 1521 1522 1523 1524 1526 1527 1528 1530 1531 1532 1533 1534 1535 1536 1537 1538 1539 1540 1541 1542 1543 1543 1544
1497 1498 1499 1500 1500 1500 1501 1504 1506 1507 1509 1510 1512 1513 1514 1516 1517 1518 1519 1520 1521 1523 1524 1525 1526 1527 1528 1530 1531 1532 1533 1534 1535 1536 1537 1538 1539 1540 1541 1542 1542 1543 1544
1498 1499 1500 1501 1502 1503 1505 1506 1508 1509 1511 1512 1513 1514 1516 1517 1518 1519 1520 1521 1522 1523 1524 1525 1526 1527 1528 1530 1531 1532 1533 1534 1535 1536 1537 1538 1539 1539 1540 1541 1542 1542 1543
1499 1501 1502 1503 1504 1505 1506 1508 1509 1510 1512 1513 1514 1515 1517 1518 1519 1520 1521 1522 1523 1523 1524 1525 1526 1527 1528 1529 1530 1532 1533 1534 1535 1536 1536 1537 1538 1539 1540 1540 1541 1542 1543
1501 1502 1503 1504 1505 1506 1508 1509 1510 1511 1513 1514 1515 1517 1518 1519 1520 1521 1521 1522 1523 1524 1525 1526 1527 1528 1528 1529 1530 1531 1532 1533 1534 1535 1535 1536 1537 1538 1539 1539 1540 1541 1542
1502 1503 1504 1506 1507 1508 1509 1510 1511 1513 1514 1515 1516 1517 1519 1520 1520 1521 1522 1523 1523 1524 1525 1526 1526 1527 1528 1529 1530 1531 1531 1532 1533 1534 1534 1535 1536 1537 1538 1538 1539 1540 1541
1504 1505 1506 1507 1508 1509 1510 1511 1512 1514 1515 1516 1517 1518 1519 1520 1521 1522 1522 1523 1524 1524 1525 1526 1526 1527 1528 1528 1529 1530 1531 1531 1532 1533 1533 1534 1535 1535 1536 1537 1538 1538 1539
1505 1506 1507 1508 1509 1510 1512 1512 1513 1514 1516 1517 1518 1519 1520 1521 1521 1522 1523 1523 1524 1524 1525 1526 1526 1527 1527 1528 1528 1529 1530 1530 1531 1531 1532 1533 1533 1534 1535 1536 1536 1537 1537
1506 1507 1508 1509 1510 1511 1512 1513 1514 1515 1516 1517 1518 1519 1520 1521 1522 1522 1523 1523 1524 1524 1525 1525 1526 1526 1526 1527 1527 1528 1528 1529 1529 1530 1531 1531 1532 1533 1533 1534 1535 1535 1536
1507 1508 1509 1511 1512 1513 1513 1515 1516 1516 1517 1518 1519 1520 1521 1522 1522 1523 1523 1523 1524 1524 1524 1525 1525 1526 1526 1526 1526 1526 1527 1528 1528 1528 1529 1530 1530 1531 1532 1532 1533 1533 1534
1508 1509 1510 1512 1513 1514 1515 1516 1517 1518 1519 1519 1520 1521 1522 1522 1523 1523 1523 1523 1523 1524 1524 1524 1525 1525 1525 1525 1525 1525 1525 1526 1526 1527 1527 1528 1529 1529 1530 1530 1531 1532 1532
1509 1510 1511 1512 1514 1515 1516 1517 1518 1518 1519 1520 1521 1522 1522 1523 1523 1523 1523 1523 1523 1523 1523 1523 1524 1524 1524 1524 1524 1524 1524 1524 1524 1525 1525 1526 1526 1527 1528 1529 1529 1530 1530
1509 1511 1512 1513 1514 1515 1516 1517 1518 1519 1520 1521 1521 1522 1522 1523 1523 1523 1523 1524 1523 1523 1523 1523 1523 1523 1523 1523 1523 1523 1523 1523 1522 1522 1523 1524 1524 1525 1526 1527 1528 1528 1528
1509 1511 1512 1514 1515 1516 1517 1518 1519 1519 1520 1521 1521 1522 1522 1523 1523 1523 1523 1523 1523 1523 1523 1523 1523 1523 1522 1522 1522 1522 1522 1521 1521 1521 1521 1522 1523 1523 1524 1525 1526 1526 1526
1509 1511 1512 1514 1515 1516 1517 1518 1519 1519 1520 1521 1521 1522 1522 1522 1523 1523 1523 1523 1523 1523 1522 1522 1522 1522 1522 1521 1521 1521 1520 1520 1520 1520 1520 1520 1521 1522 1523 1524 1524 1524 1524
1509 1510 1512 1513 1514 1515 1517 1518 1519 1519 1520 1520 1521 1521 1522 1522 1522 1522 1522 1522 1522 1522 1522 1521 1521 1521 1521 1520 1520 1520 1520 1519 1519 1519 1518 1519 1520 1520 1521 1522 1522 1522 1522
1509 1510 1511 1513 1514 1515 1516 1518 1518 1519 1520 1520 1520 1521 1521 1521 1522 1522 1522 1522 1522 1521 1521 1520 1520 1520 1519 1519 1520 1519 1519 1519 1518 1518 1518 1518 1519 1519 1519 1519 1519 1520 1519
1508 1509 1511 1512 1513 1514 1516 1517 1517 1519 1519 1519 1519 1520 1520 1521 1521 1521 1521 1521 1521 1521 1520 1520 1519 1519 1519 1518 1518 1518 1518 1517 1517 1517 1517 1517 1517 1517 1517 1517 1517 1517 1517
1507 1508 1510 1511 1512 1513 1515 1515 1517 1517 1518 1518 1519 1519 1520 1520 1520 1520 1520 1520 1520 1520 1519 1519 1518 1518 1517 1517 1517 1516 1516 1516 1516 1516 1516 1515 1515 1515 1515 1515 1515 1514 1514
1504 1506 1508 1510 1512 1513 1514 1515 1516 1517 1517 1518 1519 1519 1519 1519 1519 1519 1519 1519 1519 1519 1518 1518 1517 1516 1516 1516 1516 1515 1515 1515 1514 1514 1514 1514 1514 1513 1513 1513 1512 1512 1512
1502 1504 1506 1508 1510 1512 1513 1514 1515 1516 1516 1517 1517 1518 1518 1518 1518 1518 1518 1518 1518 1517 1517 1516 1516 1515 1515 1515 1515 1515 1514 1513 1513 1512 1512 1512 1512 1511 1511 1511 1510 1510 1510
1500 1502 1505 1507 1508 1510 1512 1513 1513 1514 1515 1516 1517 1517 1517 1517 1517 1517 1517 1517 1516 1516 1515 1515 1514 1514 1514 1513 1513 1513 1513 1512 1512 1510 1510 1510 1510 1509 1509 1509 1508 1508 1507
1499 1501 1503 1505 1507 1509 1510 1511 1512 1513 1514 1515 1516 1516 1516 1516 1516 1516 1515 1515 1515 1514 1514 1513 1512 1512 1512 1511 1511 1511 1511 1510 1510 1510 1508 1508 1508 1507 1507 1506 1506 1506 1505
1497 1499 1502 1503 1505 1506 1508 1510 1510 1512 1512 1513 1514 1514 1514 1514 1514 1514 1514 1513 1513 1512 1512 1511 1510 1510 1509 1509 1509 1509 1508 1508 1507 1507 1506 1505 1504 1504 1504 1504 1503 1503 1502